STARLINK-30311, 57637

Orbit data source: Space-Track

STARLINK-30311, 57637 is a payload satellite owned by SpaceX/Seattle (US) in LEO that was launched on Thu, 17 Aug 2023 UTC via an FALCON 9 launch vehicle from the Air Force Eastern Test Range (AFETR). Payload-class satellites include a variety of spacecraft equipped with specific instruments for various scientific and technological missions. These include communications satellites like Starlink; space stations such as the ISS; scientific satellites like the Hubble; Earth observation satellites from companies like Planet Labs, Umbra, and HawkEye 360; GPS; miniature CubeSats for education and research; and military/defense satellites.

Loading next visibility...
Identifier
57637, 2023-122F
Orbit
LEO
Country
Flag of USUS
Related business
Manufacturer
SpaceX/Seattle
Mission
Operational Commercial Communications
Bus & Motor
STARLINK V2M, Unknown motor
Mass
730 kg wet, ~700 kg dry
Launch date (UTC)
2023-08-17 (2 years ago)
Launch vehicle
FALCON 9
Launch site
Air Force Eastern Test Range (AFETR)
Object type
Payload
Rocket body
Debris
Shape & HBR
Box + 2 Pan, 14.5 m
Radar Cross Section
33.884 m², Large (>1 m²)

Expand to show TLE details & history
Last TLE update: 6 hours ago

TLE from 6 hours ago
0 STARLINK-30311
1 57637U 23122F   25243.52279917  .00000137  00000-0  25233-4 0  9996
2 57637  43.0040  48.1314 0001411 263.4884  96.5798 15.02535272113577
Epoch: 2025-08-31T12:32Z
TLE epoch observation values (Epoch: 2025-08-31T12:32:49.848Z)
Latitude
0.00001°
Longitude
-120.01782°
Altitude
558.972 km
Speed
7.584 km/s
True Right ascension
03h 12m 31s
True Declination
0° 00' 00"
Sunlit
Object was in daylight at epoch
Visualization orbit readout
Latitude
Unknown
Longitude
Unknown
Altitude
Unknown
Speed
Unknown
Apparent Right ascension
Unknown
Apparent Declination
Unknown
Sunlit
N/A
Visualization observer readout
Local Sidereal Time
10:25:25
Azimuth
Unknown
Elevation
Unknown
Doppler factor
Unknown
Orbital elements
Apogee altitude
561.984 km
Perigee altitude
560.026 km
Semi-major axis
6,939.142 km
Eccentricity
0.00014
Inclination
43.004°
RAAN
48.1314°
Arg. of periapsis
263.4884°
True anomaly
96.59586°
Mean anomaly
96.5798°
Eccentric anomaly
96.58783°
Mean motion
3.75478 °/min
Orbital period
95.88 mins
BSTAR
0.000025233
Loading maneuver chart data...
Computing Atmospheric mass density...
Loading historical data...
Loading historical data...
Loading historical data...
Loading historical data...
Loading historical data...
Loading historical data...
Loading historical data...

Documentation

Showing up to 5 results
|